This demonstration page uses our WeatherBlox Daily Observations layout. Learn more.

Left ArrowRight Arrow

44.8408, -93.29828

Hourly Observations for April 28, 2019

Temp ( °F °C ) Dew Point ( °F °C ) Humidity (%) Winds ( mph kmh ) Pressure ( in mb ) Visibility ( mi km ) Precip ( " mm )
12:53 am 00:53 Clear 40 4.4 31 -0.6 70 70 SW 7 11 30.08 1019 10 16 0.00 0.00
1:53 am 01:53 Clear 39 3.9 33 0.6 79 79 WSW 5 7 30.10 1019 10 16 0.00 0.00
2:53 am 02:53 Clear 39 3.9 33 0.6 79 79 WSW 5 7 30.11 1020 10 16 0.00 0.00
3:53 am 03:53 Clear 38 3.3 33 0.6 83 83 S 3 6 30.10 1019 10 16 0.00 0.00
4:53 am 04:53 Clear 37 2.8 32 0 82 82 SW 7 11 30.10 1019 10 16 0.00 0.00
5:53 am 05:53 Partly Cloudy 37 2.8 33 0.6 86 86 WSW 5 7 30.13 1020 10 16 0.00 0.00
6:53 am 06:53 Mostly Cloudy 38 3.3 33 0.6 83 83 W 3 6 30.15 1021 10 16 0.00 0.00
7:53 am 07:53 Mostly Cloudy 39 3.9 33 0.6 79 79 S 3 6 30.17 1022 10 16 0.00 0.00
8:53 am 08:53 Mostly Cloudy 41 5 34 1.1 76 76 VRB 3 6 30.16 1022 10 16 0.00 0.00
9:53 am 09:53 Mostly Cloudy 45 7.2 35 1.7 68 68 SSW 5 7 30.16 1021 10 16 0.00 0.00
10:53 am 10:53 Mostly Cloudy 48 8.9 35 1.7 61 61 SSE 8 13 30.16 1021 10 16 0.00 0.00
11:53 am 11:53 Mostly Cloudy 52 11.1 29 -1.7 41 41 S 9 15 30.14 1021 10 16 0.00 0.00
12:53 pm 12:53 Mostly Cloudy 54 12.2 25 -3.9 33 33 S 12 19 30.12 1020 10 16 0.00 0.00
1:53 pm 13:53 Cloudy 54 12.2 24 -4.4 31 31 SSE 13 20 30.10 1019 10 16 0.00 0.00
2:53 pm 14:53 Cloudy 53 11.7 25 -3.9 34 34 SSE 17 28 30.11 1020 10 16 0.00 0.00
3:53 pm 15:53 Cloudy 53 11.7 25 -3.9 34 34 S 20 31 30.11 1020 10 16 0.00 0.00
4:53 pm 16:53 Cloudy 53 11.7 22 -5.6 30 30 SE 17 28 30.09 1019 10 16 0.00 0.00
5:53 pm 17:53 Cloudy 52 11.1 21 -6.1 30 30 SSE 20 31 30.06 1018 10 16 0.00 0.00
6:53 pm 18:53 Cloudy 51 10.6 19 -7.2 28 28 SE 18 30 30.05 1018 10 16 0.00 0.00
7:53 pm 19:53 Cloudy 50 10 23 -5 35 35 SE 16 26 30.02 1017 10 16 0.00 0.00
8:53 pm 20:53 Cloudy 50 10 18 -7.8 28 28 SE 23 37 30.01 1016 10 16 0.00 0.00
9:53 pm 21:53 Cloudy 49 9.4 20 -6.7 32 32 SSE 12 19 30.09 1019 10 16 0.00 0.00
10:53 pm 22:53 Cloudy 49 9.4 19 -7.2 31 31 SE 15 24 30.08 1019 10 16 0.00 0.00
11:53 pm 23:53 Cloudy 48 8.9 21 -6.1 34 34 SE 17 28 30.05 1018 10 16 0.00 0.00

Powered by AerisWeather